Regional Weather Roundup
Issued by NWS Sterling, VA

Home | Current Version | Previous Version | Text Only | Print | Product List | Glossary Off
Versions: 1 2 3 4 5 6 7 8 9 10 11 12 13 14 15 16 17 18 19 20 21 22 23 24 25 26 27 28

000
ASUS41 KLWX 010010
RWRLWX

REGIONAL WEATHER ROUNDUP
NATIONAL WEATHER SERVICE BALTIMORE MD/WASHINGTON DC
800 PM EDT SAT APR 30 2016

Note: "FAIR" indicates few or no clouds below 12,000 feet
with no significant weather and/or obstructions to visibility.
 TC=TEMPERATURE CELSIUS

 * =Non NWS site. Station does not report precipitation (e.g. rain,
    snow, etc.), thunder, or fog.

DCZ001-MDZ009-015-VAZ040>042-051-053>054-010100-
WASHINGTON METRO

CITY           SKY/WX    TMP DP  RH WIND       PRES   REMARKS
WASHINGTON NAT CLOUDY    56  48  74 SE7       30.20S
DULLES         LGT RAIN  54  48  80 SE6       30.19S
ANDREWS AFB    CLOUDY    54  49  84 SE3       30.19R
FT BELVOIR     MOCLDY    55  49  79 E5        30.20S
QUANTICO       CLOUDY    57  50  77 SE6       30.21S
COLLEGE PARK*  CLOUDY    54  46  76 CALM      30.20S
LEESBURG*      DRIZZLE   55  52  88 SE6       30.20S
MANASSAS*      CLOUDY    55  50  82 SE3       30.20R
GAITHERSBURG*  CLOUDY    54  45  71 SE7       30.23F

$$

MDZ006>007-011-014-010100-
BALTIMORE METRO

CITY           SKY/WX    TMP DP  RH WIND       PRES   REMARKS
BWI AIRPORT    CLOUDY    56  47  71 S3        30.20R
MD SCIENCE CTR   N/A     58  45  62 MISG      30.21R
MARTIN STATE   PTCLDY    57  52  82 SE6       30.22
ANNAPOLIS      CLOUDY    56  49  77 MISG      30.21R
FORT MEADE*    CLOUDY    54  48  82 CALM      30.23S

$$

MDZ012-015-019>023-010100-
MARYLAND EASTERN SHORE

CITY           SKY/WX    TMP DP  RH WIND       PRES   REMARKS
OCEAN CITY     PTCLDY    51  44  77 NE7       30.24S
SALISBURY      CLOUDY    51  42  71 E7        30.22F
CAMBRIDGE*     CLOUDY    54  46  76 E8        30.21R
EASTON*        CLOUDY   N/A N/A N/A E5          N/A

$$

MDZ017>025-010100-
SOUTHERN MARYLAND

CITY           SKY/WX    TMP DP  RH WIND       PRES   REMARKS
PATUXENT RIVER CLOUDY    55  47  74 CALM      30.21S
ST INIGOES       N/A    N/A N/A N/A MISG        N/A
LEONARDTOWN*   CLOUDY    52  50  93 CALM      30.22S

$$

MDZ003>005-010100-
NORTH CENTRAL MARYLAND

CITY           SKY/WX    TMP DP  RH WIND       PRES   REMARKS
FREDERICK*     CLOUDY    54  50  87 CALM      30.21S
HAGERSTOWN APT LGT RAIN  54  48  80 SE5       30.17S
WESTMINSTER*   CLOUDY    55  52  88 S7        30.19R

$$

MDZ501>502-010100-
WESTERN MARYLAND

CITY           SKY/WX    TMP DP  RH WIND       PRES   REMARKS
OAKLAND*       FOG       45  45 100 SE14      30.09F VSB<1/4
CUMBERLAND*    CLOUDY    54  54 100 CALM      30.18S

$$

VAZ025>031-010100-
SHENANDOAH VALLEY

CITY           SKY/WX    TMP DP  RH WIND       PRES   REMARKS
WINCHESTER*    LGT RAIN  54  50  87 SE6       30.17S
FRONT ROYAL*   CLOUDY    54  52  94 CALM      30.15S
LURAY*         RAIN      54  54 100 SW5       30.16S
NEW MARKET*    CLOUDY    55  53  95 CALM      30.15R
STAUNTON*      DRIZZLE   56  55  96 S3        30.18S
WAYNESBORO*    CLOUDY    52  51  95 MISG      30.17R

$$

WVZ021-048>050-054>055-010100-
EASTERN WEST VIRGINIA PANHANDLE

CITY           SKY/WX    TMP DP  RH WIND       PRES   REMARKS
MARTINSBURG    LGT RAIN  51  48  89 SE3       30.17R FOG
PETERSBURG*    DRIZZLE   58  56  93 CALM      30.12S

$$

VAZ036>039-050-010100-
CENTRAL FOOTHILLS

CITY           SKY/WX    TMP DP  RH WIND       PRES   REMARKS
CHARLOTTESVILL LGT RAIN  56  52  86 CALM      30.17S
CULPEPER*      LGT RAIN  55  52  89 CALM      30.20R
ORANGE*        LGT RAIN  55  54  94 CALM      30.21R
GORDONSVILLE*  CLOUDY    55  52  90 CALM      30.18S
WARRENTON*     RAIN      56  46  71 SE5       30.19R

$$

VAZ055>057-010100-
NORTH AND CENTRAL PIEDMONT

CITY           SKY/WX    TMP DP  RH WIND       PRES   REMARKS
FREDERICKSBRG* LGT RAIN  56  51  84 CALM      30.19S
STAFFORD*      CLOUDY    55  48  79 SE5       30.23F

$$

NCZ024-NYZ072-PAZ021-071-VAZ022-071-010100-
OTHER REGIONAL OBSERVATIONS

CITY           SKY/WX    TMP DP  RH WIND       PRES   REMARKS
NEW YORK CITY  CLEAR     53  33  46 S7        30.26R
PHILADELPHIA   CLOUDY    58  43  57 S10       30.23R
PITTSBURGH     LGT RAIN  59  54  83 E3        30.04F
ROANOKE        CLOUDY    55  53  93 SE5       30.17S
RICHMOND       CLOUDY    56  50  80 E7        30.18S
RALEIGH        CLOUDY    61  56  83 E12       30.14R

$$

ANZ530>537-010100-
MARINE OBSERVATIONS

STATION/POSITION TIME  TEMP    WIND        PRES
                       AIR SEA DIR/SP/G
                 (UTC) (F)     (DEG/KT/KT) (MB)
THOMAS PT LIGHT  0000   56 58  180/  5/  5 1024.2R
BALT KEY BRIDGE  2300   57                   N/A
COVE POINT       2300   55                   N/A
LEWISETTA        2300   56 60                N/A
SOLOMONS ISLAND  2300   56 59                N/A
PINEY POINT      2300          140/  4/  5   N/A

$$





USA.gov is the U.S. government's official web portal to all federal, state and local government web resources and services.